[[{"header":{"parameterUnit":"m.s-1","parameterCategory":1,"la1":30.2991,"la2":30.254,"lo1":-89.0895,"lo2":-89.0444,"dy":0.0017,"dx":0.0017,"nx":28,"ny":28,"refTime":"2025-08-30T09:00:00:Z","depth":0,"parameterNumber":2,"parameterNumberName":"U-component_of_WINDS"},"data":[0,0,0,0,0,0,0,0,0,0,0,0,0,0,0,0,0,0,0,0,0,0,0,0,0,0,0,0,0,0,0,0,0,0,0,0,0,0,0,0,0,0,0,0,0,0,0,0,0,0,0,0,0,0,0,0,0,0,-2.8282,-2.8284,0,-2.8442,-2.8444,-2.8446,-2.8377,-2.8373,-2.837,-2.8366,-2.8531,-2.8539,-2.8547,0,0,0,0,0,0,0,0,0,0,0,0,0,-2.7918,-2.7925,-2.8282,-2.8284,-2.8286,-2.8442,-2.8444,-2.8446,-2.8378,-2.8373,-2.8369,-2.8364,-2.8528,-2.8538,-2.8547,0,0,0,0,0,0,0,0,0,0,0,0,0,-2.8077,-2.7928,-2.8282,-2.8271,-2.8271,-2.8441,-2.8444,-2.8447,-2.8379,-2.8373,-2.8367,-2.8362,-2.8525,-2.8537,-2.8549,-2.8739,0,0,-2.8585,-2.8591,0,0,0,0,0,0,0,0,-2.8068,-2.8091,-2.827,-2.8272,-2.8273,-2.8384,-2.8376,-2.8545,-2.838,-2.8338,-2.8366,-2.8359,-2.8487,-2.8502,-2.8544,-2.8747,-2.8754,-2.8586,-2.8594,-2.8599,-2.8602,0,0,0,0,0,0,0,-2.8057,-2.8083,-2.8345,-2.8273,-2.8275,-2.8258,-2.8274,-2.8408,-2.8443,-2.8341,-2.8337,-2.8357,-2.8486,-2.8533,-2.8548,-2.8756,-2.8586,-2.8597,-2.8604,-2.8609,-2.9123,-2.9129,0,0,0,0,0,0,-2.8046,-2.8075,-2.834,-2.835,-2.8154,-2.8269,-2.8287,-2.8354,-2.8442,-2.8449,-2.8361,-2.8353,-2.8515,-2.8534,-2.8553,-2.8783,-2.8599,-2.861,-2.8617,-2.9117,-2.9125,-2.9132,0,0,0,0,0,0,-2.8039,-2.8071,-2.8334,-2.8211,-2.8243,-2.8282,-2.8357,-2.836,-2.8407,-2.8457,-2.8463,-2.8403,-2.8511,-2.8536,-2.8693,-2.8788,-2.8616,-2.8626,-2.9109,-2.9119,-2.9128,-2.9243,0,0,0,0,0,0,-2.8028,-2.8068,-2.8141,-2.8213,-2.825,-2.8472,-2.8363,-2.8368,-2.8428,-2.8418,-2.8497,-2.8504,-2.8509,-2.8676,-2.8705,-2.8801,-2.8636,-2.9101,-2.9114,-2.9125,-2.9231,-2.9255,-2.9276,0,0,0,0,0,-2.8016,-2.8167,-2.8145,-2.8178,-2.8342,-2.8477,-2.8498,-2.85,-2.8435,-2.8509,-2.8541,-2.8502,-2.8772,-2.8693,-2.8725,-2.8826,-2.9095,-2.911,-2.9124,-2.9221,-2.9251,-2.9276,0,0,0,0,0,0,-2.8106,-2.8177,-2.8153,-2.8332,-2.8399,-2.8465,-2.8558,-2.8531,-2.8618,-2.8606,-2.8604,-2.8623,-2.8785,-2.8821,-2.8731,-2.9015,-2.8924,-2.8946,-2.8986,-2.9015,-2.9037,-2.9026,-2.8646,0,0,0,0,0,-2.8146,-2.825,-2.8306,-2.8459,-2.8493,-2.852,-2.8579,-2.8575,-2.8644,-2.8672,-2.8715,-2.8785,-2.8885,-2.8951,-2.9046,-2.9235,-2.9252,-2.932,-2.9343,-2.9361,-2.9381,-2.9483,-2.9515,-2.9179,-2.9179,-2.9179,0,0,-2.8231,-2.8283,-2.8348,-2.8478,-2.8529,-2.8637,-2.8545,-2.8663,-2.8743,-2.869,-2.8842,-2.8876,-2.8953,-2.9126,-2.9205,-2.9161,-2.9476,-2.938,-2.9394,-2.9404,-2.9502,-2.9533,-2.9562,-2.9189,-2.9188,-2.9186,0,0,-2.8442,-2.8491,-2.8624,-2.8677,-2.8756,-2.8772,-2.8804,-2.8875,-2.8895,-2.9047,-2.901,-2.9104,-2.9277,-2.9334,-2.9385,-2.9616,-2.9584,-2.9647,-2.9766,-2.9867,-2.9893,-2.9917,-3.0,-3.003,-2.9666,-2.9666,-2.9666,0,-2.8538,-2.8699,-2.8696,-2.8817,-2.8875,-2.8832,-2.8967,-2.9018,-2.9124,-2.9166,-2.9114,-2.933,-2.9379,-2.9566,-2.9622,-2.9665,-2.9702,-2.9639,-2.9889,-2.9913,-2.9935,-3.0015,-3.0046,-2.9673,-2.9673,-2.9672,-2.9671,0,-2.8814,-2.8926,-2.9024,-2.9127,-2.9196,-2.9324,-2.934,-2.941,-2.9399,-2.9421,-2.9576,-2.9632,-2.9738,-2.9782,-2.9772,-2.9968,-2.9938,-2.9888,-2.9797,-2.9974,-3.0049,-3.008,-2.9684,-2.9681,-2.9679,-2.9677,0,0,-2.9088,-2.9187,-2.9223,-2.927,-2.9352,-2.9439,-2.9564,-2.9667,-2.9728,-2.9802,-2.9908,-3.0054,-3.0008,-3.0067,-3.0063,-3.0151,-3.0331,-3.009,-3.0092,-3.0135,-3.0551,-3.059,-3.0625,-3.0309,-3.0315,-3.032,-3.0545,0,-2.9306,-2.9526,-2.9526,-2.9729,-2.9833,-2.9792,-2.9901,-2.9964,-2.9987,-3.0079,-3.0104,-3.0209,-3.014,-3.0175,-3.026,-3.0292,-3.0415,-3.0275,-3.0409,-3.0414,-3.0393,-3.0664,-3.0705,-3.0916,-3.0574,-3.0579,-3.0583,0,-2.9591,-2.9674,-2.9887,-2.9955,-2.9998,-3.0097,-3.0191,-3.0278,-3.0349,-3.0359,-3.0424,-3.0407,-3.0534,-3.0438,-3.0614,-3.0518,-3.0573,-3.0596,-3.0604,-3.0619,-3.0511,-3.0688,-3.0982,-3.1015,-3.0629,-3.0625,-3.0622,0,-2.9771,-2.9936,-3.0085,-3.0126,-3.0208,-3.0278,-3.0316,-3.038,-3.0442,-3.0524,-3.0564,-3.0661,-3.0714,-3.0789,-3.0798,-3.0726,-3.0975,-3.0879,-3.0989,-3.0989,-3.1045,-3.1042,-3.1355,-3.1077,-3.1077,-3.1076,-3.1076,0,-3.0016,-3.0149,-3.0167,-3.026,-3.0406,-3.0405,-3.0551,-3.0582,-3.0639,-3.0737,-3.0707,-3.0799,-3.0804,-3.0898,-3.0906,-3.1051,-3.1075,-3.1088,-3.1089,-3.1092,-3.1091,-3.1129,-3.1116,-3.1085,-3.1083,-3.1081,-3.108,0,-3.0244,-3.0262,-3.0422,-3.0486,-3.0505,-3.0611,-3.0666,-3.0754,-3.0773,-3.0897,-3.0926,-3.0958,-3.1067,-3.1083,-3.1211,-3.1216,-3.1391,-3.1376,-3.1368,-3.1366,-3.1476,-3.1466,-3.1826,-3.1874,-3.1563,-3.1566,-3.1569,0,-3.04,-3.0501,-3.0576,-3.0639,-3.068,-3.0782,-3.0845,-3.0847,-3.0913,-3.1,-3.1078,-3.1184,-3.127,-3.1447,-3.1481,-3.1579,-3.1567,-3.1686,-3.1582,-3.1582,-3.1571,-3.1566,-3.1576,-3.1708,-3.1711,-3.1714,-3.1716,0,-3.0676,-3.068,-3.0771,-3.0867,-3.0942,-3.1017,-3.1088,-3.1141,-3.1152,-3.1228,-3.134,-3.1406,-3.1536,-3.1643,-3.174,-3.1778,-3.175,-3.1748,-3.1779,-3.1784,-3.1776,-3.1784,-3.1425,-3.174,-3.1738,-3.1736,-3.1735,-3.1734,-3.0874,-3.0962,-3.1029,-3.1132,-3.1185,-3.1251,-3.1337,-3.1367,-3.146,-3.1566,-3.1561,-3.1684,-3.1751,-3.1878,-3.1923,-3.202,-3.1981,-3.2025,-3.2037,-3.2048,-3.206,-3.1759,-3.2037,-3.2036,-3.2036,-3.2035,-3.2035,0,-3.115,-3.119,-3.1285,-3.1384,-3.1465,-3.143,-3.1506,-3.1576,-3.1685,-3.1749,-3.1834,-3.1962,-3.2065,-3.2107,-3.2207,-3.2277,-3.2266,-3.2303,-3.2299,-3.2309,-3.2088,-3.2052,-3.231,-3.231,-3.231,-3.231,-3.231,-3.231,-3.1303,-3.145,-3.1461,-3.1634,-3.1673,-3.1794,-3.184,-3.1901,-3.1953,-3.2097,-3.2182,-3.2209,-3.2264,-3.2369,-3.2461,-3.2471,-3.251,-3.2554,-3.2558,-3.2352,-3.2324,-3.2298,-3.2264,-3.2562,-3.2562,-3.277,-3.2772,-3.2774]},{"header":{"parameterUnit":"m.s-1","parameterCategory":1,"la1":30.2991,"la2":30.254,"lo1":-89.0895,"lo2":-89.0444,"dy":0.0017,"dx":0.0017,"nx":28,"ny":28,"refTime":"2025-08-30T09:00:00:Z","depth":0,"parameterNumber":3,"parameterNumberName":"V-component_of_WINDS"},"data":[0,0,0,0,0,0,0,0,0,0,0,0,0,0,0,0,0,0,0,0,0,0,0,0,0,0,0,0,0,0,0,0,0,0,0,0,0,0,0,0,0,0,0,0,0,0,0,0,0,0,0,0,0,0,0,0,0,0,-2.5659,-2.566,0,-2.5714,-2.5715,-2.5716,-2.5705,-2.5704,-2.5703,-2.5702,-2.5756,-2.5758,-2.576,0,0,0,0,0,0,0,0,0,0,0,0,0,-2.5541,-2.5544,-2.5659,-2.566,-2.5661,-2.5714,-2.5715,-2.5716,-2.5705,-2.5703,-2.5702,-2.5701,-2.5755,-2.5758,-2.576,0,0,0,0,0,0,0,0,0,0,0,0,0,-2.5594,-2.5544,-2.5659,-2.5662,-2.5663,-2.5714,-2.5715,-2.5716,-2.5705,-2.5703,-2.5702,-2.5701,-2.5754,-2.5757,-2.5761,-2.5813,0,0,-2.5772,-2.5773,0,0,0,0,0,0,0,0,-2.5591,-2.5598,-2.5661,-2.5662,-2.5663,-2.5701,-2.5693,-2.5748,-2.5705,-2.5689,-2.5702,-2.57,-2.5738,-2.5743,-2.5757,-2.5815,-2.5817,-2.5772,-2.5774,-2.5776,-2.5777,0,0,0,0,0,0,0,-2.5587,-2.5596,-2.5681,-2.5662,-2.5663,-2.5659,-2.5665,-2.5704,-2.5721,-2.569,-2.5689,-2.5696,-2.5739,-2.5753,-2.5758,-2.5818,-2.5772,-2.5775,-2.5777,-2.5779,-2.592,-2.5921,0,0,0,0,0,0,-2.5583,-2.5593,-2.5679,-2.5683,-2.5623,-2.5662,-2.5669,-2.569,-2.5721,-2.5724,-2.5697,-2.5695,-2.5748,-2.5754,-2.576,-2.5821,-2.5776,-2.5779,-2.5781,-2.5918,-2.592,-2.5922,0,0,0,0,0,0,-2.5581,-2.5591,-2.5677,-2.5638,-2.5648,-2.5666,-2.569,-2.5692,-2.5707,-2.5726,-2.5729,-2.5709,-2.5747,-2.5755,-2.5799,-2.5823,-2.578,-2.5784,-2.5916,-2.5919,-2.5921,-2.5945,0,0,0,0,0,0,-2.5578,-2.559,-2.5611,-2.5638,-2.5651,-2.5717,-2.5692,-2.5694,-2.5713,-2.5711,-2.5738,-2.5741,-2.5746,-2.5794,-2.5803,-2.5827,-2.5786,-2.5914,-2.5917,-2.592,-2.5942,-2.5948,-2.5953,0,0,0,0,0,-2.5573,-2.5616,-2.5612,-2.5623,-2.5677,-2.5718,-2.5725,-2.5731,-2.5715,-2.5735,-2.5748,-2.574,-2.5819,-2.5799,-2.5808,-2.5834,-2.5912,-2.5916,-2.592,-2.5939,-2.5947,-2.5953,0,0,0,0,0,0,-2.559,-2.5619,-2.5616,-2.5668,-2.5691,-2.5716,-2.5742,-2.5738,-2.5765,-2.5762,-2.5767,-2.5773,-2.5818,-2.5831,-2.5808,-2.5885,-2.5863,-2.5869,-2.5875,-2.5882,-2.5887,-2.5883,-2.5789,0,0,0,0,0,-2.56,-2.5632,-2.5656,-2.57,-2.5711,-2.5725,-2.5743,-2.5745,-2.5768,-2.5778,-2.5793,-2.5815,-2.5845,-2.5864,-2.5892,-2.5944,-2.5948,-2.5966,-2.5971,-2.5976,-2.598,-2.6006,-2.6014,-2.5934,-2.5934,-2.5933,0,0,-2.5621,-2.5641,-2.5661,-2.5703,-2.5721,-2.5753,-2.5733,-2.5768,-2.5791,-2.5783,-2.5825,-2.5838,-2.5862,-2.591,-2.5932,-2.5922,-2.6003,-2.598,-2.5984,-2.5986,-2.6011,-2.6019,-2.6025,-2.5936,-2.5936,-2.5935,0,0,-2.5675,-2.5694,-2.5732,-2.575,-2.5777,-2.5785,-2.5794,-2.582,-2.5828,-2.5871,-2.5865,-2.5892,-2.5944,-2.5961,-2.5976,-2.6035,-2.6029,-2.6044,-2.6072,-2.6097,-2.6104,-2.6109,-2.6129,-2.6136,-2.6049,-2.6049,-2.6049,0,-2.5697,-2.5746,-2.5752,-2.5787,-2.5805,-2.5799,-2.5837,-2.5854,-2.5888,-2.59,-2.5889,-2.5952,-2.5968,-2.6019,-2.6033,-2.6046,-2.6056,-2.6041,-2.6102,-2.6108,-2.6113,-2.6132,-2.6139,-2.605,-2.605,-2.605,-2.605,0,-2.5771,-2.5804,-2.5831,-2.5865,-2.5886,-2.5923,-2.5933,-2.5953,-2.5953,-2.5963,-2.6005,-2.6025,-2.6056,-2.6069,-2.6069,-2.6119,-2.6112,-2.6101,-2.608,-2.6123,-2.614,-2.6147,-2.6053,-2.6052,-2.6052,-2.6051,0,0,-2.5837,-2.5873,-2.5883,-2.5897,-2.5926,-2.5952,-2.5987,-2.6018,-2.6035,-2.6058,-2.6087,-2.6129,-2.6119,-2.6137,-2.6139,-2.6162,-2.6205,-2.6148,-2.6149,-2.6157,-2.6259,-2.6266,-2.6274,-2.6201,-2.6203,-2.6204,-2.6257,0,-2.5893,-2.5955,-2.5961,-2.6017,-2.6047,-2.6041,-2.6071,-2.6092,-2.6101,-2.6127,-2.6137,-2.6166,-2.6152,-2.6162,-2.6184,-2.6195,-2.6225,-2.6192,-2.6226,-2.6228,-2.6219,-2.6284,-2.6292,-2.6341,-2.6264,-2.6265,-2.6266,0,-2.5966,-2.5992,-2.6051,-2.6074,-2.6086,-2.6114,-2.6142,-2.6167,-2.6189,-2.6194,-2.6213,-2.6212,-2.6246,-2.6224,-2.6271,-2.6247,-2.6262,-2.6269,-2.6271,-2.6274,-2.6249,-2.6287,-2.6357,-2.6363,-2.6277,-2.6276,-2.6275,0,-2.6007,-2.6056,-2.6097,-2.611,-2.6139,-2.6158,-2.617,-2.6191,-2.6209,-2.6233,-2.6244,-2.6272,-2.6287,-2.6308,-2.6313,-2.6297,-2.6359,-2.6338,-2.6363,-2.6363,-2.6376,-2.6375,-2.6447,-2.6387,-2.6387,-2.6387,-2.6386,0,-2.6067,-2.6103,-2.6116,-2.6141,-2.618,-2.6186,-2.6224,-2.6236,-2.6254,-2.628,-2.6277,-2.6301,-2.6308,-2.6333,-2.6338,-2.6375,-2.6382,-2.6386,-2.6386,-2.6385,-2.6385,-2.6394,-2.6391,-2.6389,-2.6388,-2.6388,-2.6387,0,-2.612,-2.613,-2.6174,-2.6197,-2.6204,-2.6231,-2.625,-2.6274,-2.6282,-2.6315,-2.6323,-2.6337,-2.6366,-2.6374,-2.6409,-2.6412,-2.6455,-2.6453,-2.6448,-2.6447,-2.6472,-2.6469,-2.6552,-2.6563,-2.6496,-2.6497,-2.6498,0,-2.6157,-2.6185,-2.621,-2.6228,-2.6241,-2.627,-2.6288,-2.6294,-2.6312,-2.6339,-2.6358,-2.6388,-2.6411,-2.6458,-2.647,-2.6496,-2.6494,-2.6522,-2.6498,-2.6496,-2.6493,-2.6491,-2.6493,-2.6526,-2.6526,-2.6527,-2.6527,0,-2.6222,-2.6226,-2.6252,-2.628,-2.6302,-2.6324,-2.6345,-2.6359,-2.6368,-2.6388,-2.6419,-2.6437,-2.6472,-2.6501,-2.6527,-2.6539,-2.6534,-2.6535,-2.6542,-2.6541,-2.6536,-2.6537,-2.6459,-2.6533,-2.6532,-2.6532,-2.6532,-2.6531,-2.6268,-2.6291,-2.6312,-2.6341,-2.6358,-2.6377,-2.64,-2.6411,-2.6437,-2.6466,-2.6468,-2.65,-2.652,-2.6555,-2.6568,-2.6592,-2.6584,-2.6595,-2.6597,-2.6599,-2.6601,-2.6533,-2.6597,-2.6597,-2.6597,-2.6597,-2.6597,0,-2.6331,-2.6345,-2.6371,-2.6401,-2.6423,-2.6418,-2.644,-2.6459,-2.6487,-2.6507,-2.653,-2.6563,-2.659,-2.6604,-2.6631,-2.6647,-2.6646,-2.6654,-2.6652,-2.6655,-2.6607,-2.6598,-2.6655,-2.6655,-2.6655,-2.6655,-2.6655,-2.6655,-2.6367,-2.6406,-2.6411,-2.6458,-2.647,-2.6502,-2.6515,-2.6533,-2.6548,-2.6586,-2.6608,-2.6617,-2.6634,-2.6661,-2.6685,-2.6688,-2.6698,-2.6707,-2.6709,-2.6664,-2.6658,-2.6653,-2.6644,-2.6709,-2.6709,-2.6754,-2.6754,-2.6755]}]]